Short Creek, WV

5:40 PM EST on December 06, 2016 (GMT -0500)
Wheeling-Ohio County

Weather History for KHLG - February, 2013

Change the Weather History Date:

Monday, February 4, 2013

  Actual Average Record
Temperature  
Mean Temperature 22 °F 30 °F  
Max Temperature 28 °F 38 °F 57 °F (2008)
Min Temperature 16 °F 23 °F 3 °F (2007)
Degree Days  
Heating Degree Days 43 35  
Month to date heating degree days 184 140  
Since 1 July heating degree days 3215 3382  
Cooling Degree Days 0    
Month to date cooling degree days 0  
Year to date cooling degree days 0  
Moisture  
Dew Point 19 °F    
Average Humidity 80    
Maximum Humidity 92    
Minimum Humidity 68    
Precipitation  
Precipitation 0.18 in 0.08 in 0.62 in (1988)
Month to date precipitation 0.23 0.30  
Sea Level Pressure  
Sea Level Pressure 29.93 in    
Wind  
Wind Speed 6 mph (South)    
Max Wind Speed 17 mph    
Max Gust Speed 22 mph    
Visibility 4 miles    
Events Fog , Snow    
T = Trace of Precipitation, MM = Missing Value Source: NWS Daily Summary

Daily Weather History Graph

Daily Weather History Graph

Search for Another Location

Airport or City:

Trip Planner

Search our weather history database for the weather conditions in past years. The results will help you decide how hot, cold, wet, or windy it might be!

Date:

Astronomy

Feb. 04, 2013 Rise Set
Actual Time 7:28 AM EST 5:45 PM EST
Civil Twilight 6:59 AM EST 6:13 PM EST
Nautical Twilight 6:27 AM EST 6:46 PM EST
Astronomical Twilight 5:55 AM EST 7:17 PM EST
Moon 2:02 AM EST (2/4) 12:07 PM EST (2/4)
Length of Visible Light 11h 14m
Length of Day
10h 17m
Last Quarter, 37% of the Moon is Illuminated
Feb 4
Last Quarter
Feb 10
New
Feb 17
First Quarter
Feb 25
Full
Mar 4
Last Quarter

Hourly Weather History & Observations

Time (EST) Temp. Windchill Dew Point Humidity Pressure Visibility Wind Dir Wind Speed Gust Speed Precip Events Conditions
12:22 AM 17.6 °F 5.0 °F 12.2 °F 79% 30.03 in 4.0 mi West 11.5 mph - 0.00 in Snow Light Snow
12:53 AM 17.1 °F 5.8 °F 10.9 °F 77% 30.09 in 10.0 mi WSW 9.2 mph 18.4 mph 0.00 in   Overcast
1:30 AM 17.6 °F 5.0 °F 10.4 °F 73% 30.02 in 10.0 mi WSW 11.5 mph 19.6 mph N/A   Overcast
1:53 AM 18.0 °F 5.4 °F 10.9 °F 74% 30.09 in 10.0 mi West 11.5 mph 18.4 mph N/A   Overcast
2:53 AM 18.0 °F 5.4 °F 10.0 °F 71% 30.10 in 10.0 mi West 11.5 mph 20.7 mph N/A   Overcast
3:53 AM 17.1 °F 5.0 °F 10.9 °F 77% 30.10 in 10.0 mi WSW 10.4 mph - N/A   Overcast
6:53 AM 17.1 °F 8.7 °F 10.0 °F 74% 30.11 in 10.0 mi SW 5.8 mph - N/A   Overcast
7:53 AM 18.0 °F 9.8 °F 10.9 °F 74% 30.10 in 6.0 mi SSW 5.8 mph - N/A   Haze
8:53 AM 19.0 °F 8.2 °F 12.9 °F 77% 30.09 in 8.0 mi SW 9.2 mph - N/A   Overcast
9:53 AM 21.0 °F 9.9 °F 12.9 °F 71% 30.06 in 10.0 mi SSW 10.4 mph 16.1 mph N/A   Overcast
10:53 AM 21.9 °F 11.0 °F 12.9 °F 68% 30.04 in 8.0 mi SSW 10.4 mph - N/A   Overcast
11:21 AM 23.0 °F 13.1 °F 15.8 °F 74% 29.98 in 2.0 mi SSW 9.2 mph - 0.00 in Snow Light Snow
11:46 AM 23.0 °F 15.8 °F 15.8 °F 74% 29.97 in 1.8 mi SW 5.8 mph - 0.00 in Snow Light Snow
11:53 AM 23.0 °F 14.7 °F 15.1 °F 72% 30.03 in 1.5 mi SSW 6.9 mph - 0.00 in Snow Light Snow
12:39 PM 21.2 °F 12.6 °F 17.6 °F 86% 29.96 in 0.8 mi SW 6.9 mph - 0.01 in Snow Light Snow
12:53 PM 23.0 °F 17.0 °F 18.0 °F 81% 30.01 in 0.8 mi WSW 4.6 mph - 0.01 in Snow Light Snow
1:09 PM 23.0 °F 15.8 °F 19.4 °F 86% 29.94 in 1.0 mi South 5.8 mph - 0.00 in Snow Light Snow
1:22 PM 23.0 °F 17.0 °F 19.4 °F 86% 29.93 in 0.8 mi SSE 4.6 mph - 0.00 in Snow Light Snow
1:34 PM 21.2 °F 13.6 °F 19.4 °F 93% 29.93 in 0.8 mi SSE 5.8 mph - 0.01 in Snow Light Snow
1:45 PM 23.0 °F 17.0 °F 19.4 °F 86% 29.92 in 0.8 mi South 4.6 mph - 0.01 in Snow Light Snow
1:53 PM 23.0 °F 18.4 °F 19.0 °F 85% 29.98 in 1.0 mi South 3.5 mph - 0.01 in Snow Light Snow
1:58 PM 23.0 °F 18.4 °F 19.4 °F 86% 29.91 in 0.8 mi SSE 3.5 mph - 0.00 in Snow Light Snow
2:08 PM 23.0 °F 18.4 °F 19.4 °F 86% 29.91 in 0.8 mi SSE 3.5 mph - 0.01 in Snow Light Snow
2:12 PM 23.0 °F 18.4 °F 19.4 °F 86% 29.91 in 0.8 mi South 3.5 mph - 0.01 in Snow Light Snow
2:37 PM 23.0 °F 17.0 °F 19.4 °F 86% 29.89 in 0.5 mi South 4.6 mph - 0.02 in Fog , Snow Snow
2:48 PM 23.0 °F 18.4 °F 19.4 °F 86% 29.89 in 0.5 mi South 3.5 mph - 0.02 in Fog , Snow Snow
2:53 PM 23.0 °F 18.4 °F 19.9 °F 88% 29.95 in 0.5 mi SSE 3.5 mph - 0.03 in Fog , Snow Snow
3:09 PM 23.0 °F 18.4 °F 19.4 °F 86% 29.88 in 0.2 mi SE 3.5 mph - 0.01 in Fog , Snow Snow
3:21 PM 24.8 °F 20.5 °F 21.2 °F 86% 29.88 in 0.5 mi SSE 3.5 mph - 0.02 in Fog , Snow Snow
3:43 PM 24.8 °F 19.1 °F 21.2 °F 86% 29.87 in 0.5 mi SE 4.6 mph - 0.03 in Fog , Snow Snow
3:53 PM 24.1 °F 17.0 °F 21.0 °F 88% 29.93 in 0.5 mi SE 5.8 mph - 0.03 in Fog , Snow Snow
4:29 PM 24.8 °F 17.9 °F 21.2 °F 86% 29.85 in 0.2 mi SE 5.8 mph - 0.03 in Fog , Snow Snow
4:46 PM 24.8 °F - 21.2 °F 86% 29.84 in 0.5 mi Calm Calm - 0.04 in Fog , Snow Snow
4:53 PM 24.1 °F 19.7 °F 21.9 °F 91% 29.91 in 0.2 mi SE 3.5 mph - 0.04 in Fog , Snow Light Snow
5:27 PM 24.8 °F 19.1 °F 21.2 °F 86% 29.84 in 0.8 mi SSE 4.6 mph - 0.02 in Snow Light Snow
5:41 PM 24.8 °F 20.5 °F 23.0 °F 93% 29.83 in 0.5 mi SSE 3.5 mph - 0.03 in Fog , Snow Light Snow
5:48 PM 24.8 °F 20.5 °F 23.0 °F 93% 29.83 in 0.5 mi SSE 3.5 mph - 0.03 in Fog , Snow Light Snow
5:53 PM 25.0 °F 20.7 °F 23.0 °F 92% 29.90 in 0.8 mi South 3.5 mph - 0.04 in Snow Light Snow
5:58 PM 24.8 °F 20.5 °F 23.0 °F 93% 29.84 in 1.0 mi SSE 3.5 mph - 0.00 in Snow Light Snow
6:06 PM 24.8 °F 20.5 °F 23.0 °F 93% 29.84 in 1.0 mi South 3.5 mph - 0.00 in Snow Light Snow
6:44 PM 24.8 °F - 23.0 °F 93% 29.84 in 2.0 mi Calm Calm - 0.01 in Snow Light Snow
6:53 PM 25.0 °F - 23.0 °F 92% 29.91 in 1.8 mi Calm Calm - 0.01 in Snow Light Snow
7:01 PM 24.8 °F - 23.0 °F 93% 29.84 in 1.5 mi Calm Calm - 0.01 in Snow Light Snow
7:18 PM 24.8 °F 20.5 °F 23.0 °F 93% 29.84 in 2.0 mi SE 3.5 mph - 0.01 in Snow Light Snow
7:29 PM 24.8 °F 20.5 °F 23.0 °F 93% 29.85 in 4.0 mi SSE 3.5 mph - 0.01 in Snow Light Snow
7:53 PM 25.0 °F 20.7 °F 23.0 °F 92% 29.90 in 8.0 mi South 3.5 mph - 0.01 in   Overcast
8:21 PM 24.8 °F 19.1 °F 23.0 °F 93% 29.84 in 9.0 mi South 4.6 mph - N/A   Overcast
8:45 PM 26.6 °F 20.0 °F 23.0 °F 86% 29.83 in 9.0 mi SSW 5.8 mph - N/A   Overcast
8:53 PM 26.1 °F 20.5 °F 23.0 °F 88% 29.88 in 8.0 mi South 4.6 mph - N/A   Overcast
9:53 PM 27.0 °F 23.0 °F 24.1 °F 89% 29.89 in 9.0 mi SW 3.5 mph - N/A   Overcast
10:43 PM 26.6 °F 20.0 °F 24.8 °F 93% 29.84 in 8.0 mi WSW 5.8 mph - N/A   Overcast
10:53 PM 27.0 °F 21.6 °F 25.0 °F 92% 29.90 in 7.0 mi WSW 4.6 mph - N/A   Overcast
11:45 PM 28.4 °F 23.3 °F 26.6 °F 93% 29.83 in 2.5 mi SW 4.6 mph - N/A   Overcast
11:53 PM 28.0 °F 24.2 °F 26.1 °F 92% 29.89 in 2.0 mi WSW 3.5 mph - N/A   Overcast